Flag for Colombia Weather past 2 weeks in Cali, Colombia

Now
72 °F

Broken clouds.


Feels Like: 69 °F
Forecast: 69 / 82 °F
Wind: 2 mph from North

Location: Cali / Alfonso Bonillaaragon

Current Time: Jan 31, 2015 at 8:09:32 AM

Latest Report: Jan 31, 2015 at 7:00 AM


Visibility: N/A

Pressure: 29.97 "Hg

Humidity: 88%

Dew point: 68 °F

Location of CaliLocation

Historic Weather in Cali — Graph

°F

Cali temperature yesterday

Maximum temperature yesterday: 88 °F (at 2:00 PM)
Minimum temperature yesterday: 68 °F (at 3:00 AM)
Average temperature yesterday: 77 °F

Past Weeks' High & Low Weather Summary

 TemperatureHumidityPressure
High90 °F (Jan 28, 4:00 PM)100% (Jan 17, 9:00 PM)30.12 "Hg (Jan 17, 9:00 PM)
Low64 °F (Jan 18, 3:00 AM)43% (Jan 28, 4:00 PM)29.76 "Hg (Jan 29, 4:00 PM)
Average74 °F76%29.96 "Hg
* Reported Jan 16 7:00 AM — Jan 31 7:00 AM, Cali, Weather by CustomWeather, © 2014

Note: Actual official high and low records may vary slightly from our data, if they occured in-between our weather recording intervals... More about our weather records

Advertising

Cali weather history for previous 24 hours

 ConditionsComfort  
Time TempWeatherWind HumidityBarometerVisibility
7:00 AM
Jan 31
72 °FBroken clouds.2 mph88%29.97 "HgN/A
6:00 AM70 °FPassing clouds.No wind88%29.94 "HgN/A
5:00 AM70 °FPassing clouds.3 mph88%29.93 "HgN/A
4:00 AM70 °FPassing clouds.8 mph88%29.92 "HgN/A
2:00 AM70 °FPartly cloudy.2 mph88%29.92 "HgN/A
1:00 AM72 °FPartly cloudy.3 mph83%29.95 "HgN/A
12:00 AM72 °FPassing clouds.No wind78%29.97 "HgN/A
11:00 PM
Jan 30
73 °FPassing clouds.No wind74%29.97 "HgN/A
10:00 PM75 °FPassing clouds.5 mph65%29.96 "HgN/A
9:00 PM75 °FPassing clouds.8 mph69%29.94 "HgN/A
8:00 PM73 °FScattered showers. Passing clouds.14 mph74%29.90 "HgN/A
7:00 PM77 °FScattered showers. Passing clouds.8 mph69%29.88 "HgN/A
6:00 PM81 °FScattered showers. Scattered clouds.13 mph58%29.85 "HgN/A
5:00 PM82 °FScattered clouds.5 mph62%29.83 "HgN/A
4:00 PM88 °FScattered clouds.8 mph46%29.82 "HgN/A
3:00 PM84 °FScattered clouds.6 mph55%29.84 "HgN/A
2:00 PM88 °FBroken clouds.3 mph49%29.86 "HgN/A
1:00 PM84 °FBroken clouds.No wind55%29.90 "HgN/A
12:00 PM84 °FScattered clouds.5 mph58%29.93 "HgN/A
11:00 AM82 °FScattered clouds.3 mph62%29.95 "HgN/A
10:00 AM79 °FPartly sunny.3 mph70%29.98 "HgN/A
9:00 AM77 °FPartly sunny.5 mph74%29.98 "HgN/A
8:00 AM72 °FPartly sunny.2 mph88%29.96 "HgN/A
Weather by CustomWeather, © 2014

See weather overviewHow to use our weather pages